Location: Beverley
(50.2667°N, 107.9667°W)
Time: 08:23:30
(UTC+00:00)

EO-79 - Pass Details

Date: 07 July 2022
Orbit: 588 x 603 km, 98.0° (Epoch: 17 August)

Event Time Altitude Azimuth Distance (km) Brightness Sun altitude
Rises 09:58:39 0° 6° (N) 2,863 ? -8.9°
Reaches altitude 10° 10:01:01 10° 355° (N) 1,957 ? -8.6°
Maximum altitude 10:04:42 30° 295° (WNW) 1,105 ? -8.3°
Drops below altitude 10° 10:08:23 10° 235° (SW) 1,950 ? -7.9°
Enters shadow 10:08:32 - 234° (SW) 2,004 ? -7.9°
